Location: Huesca
(42.1318°N, 0.4078°W)
Time: 14:00:10
(UTC+02:00)

A-11 Canister half - Visible Passes

Search period start: 19 July 2024 00:00
Search period end: 29 July 2024 00:00
Orbit: 1524 x 1684 km, 47.3° (Epoch: 18 July)

Date Brightness Start Highest point End Pass type
(mag) Time Alt. Az. Time Alt. Az. Time Alt. Az.
19 Jul 10.2 05:52:04 10° SSW 06:00:46 35° SE 06:09:17 10° ENE visible
20 Jul 10.2 05:30:28 10° S 05:39:03 33° SE 05:47:27 10° ENE visible
21 Jul 10.2 05:08:54 10° S 05:17:20 31° SE 05:25:34 10° ENE visible
22 Jul 10.2 04:48:20 13° S 04:55:36 30° SE 05:03:42 10° ENE visible
23 Jul 10.3 04:27:51 16° S 04:33:54 28° SE 04:41:49 10° ENE visible
24 Jul 10.3 04:07:18 18° SSE 04:12:11 26° SE 04:19:55 10° ENE visible
24 Jul 9.3 06:06:07 10° SW 06:16:11 73° SSE 06:26:00 10° ENE visible
25 Jul 10.3 03:46:43 20° SSE 03:50:28 25° SE 03:58:00 10° ENE visible
25 Jul 9.3 05:45:00 12° SW 05:54:24 71° SSE 06:04:12 10° ENE visible
26 Jul 10.3 03:26:05 21° SSE 03:28:46 23° SE 03:36:03 10° E visible
26 Jul 9.3 05:24:21 17° SW 05:32:37 69° SE 05:42:26 10° ENE visible
27 Jul 10.3 03:05:24 21° SE 03:07:03 22° SE 03:14:05 10° E visible
27 Jul 9.3 05:03:41 22° SW 05:10:51 66° SE 05:20:39 10° ENE visible
28 Jul 10.3 02:44:41 20° SE 02:45:21 21° SE 02:52:05 10° E visible
28 Jul 9.3 04:42:58 27° SW 04:49:04 64° SE 04:58:51 10° ENE visible
